StationID,Date,MaxTemp,MinTemp,Precipitation,Snowfall,SnowDepth
"CA001013519","1989-06-01",,,0.00,0.00,0.00
"CA001013519","1989-06-02",,,0.00,0.00,0.00
"CA001013519","1989-06-03",,,0.00,0.00,0.00
"CA001013519","1989-06-04",,,0.00,0.00,0.00
"CA001013519","1989-06-05",,,0.00,0.00,0.00
"CA001013519","1989-06-06",,,0.00,0.00,0.00
"CA001013519","1989-06-07",,,0.00,0.00,0.00
"CA001013519","1989-06-08",,,12.00,0.00,0.00
"CA001013519","1989-06-09",,,0.00,0.00,0.00
"CA001013519","1989-06-10",,,0.00,0.00,0.00
"CA001013519","1989-06-11",,,0.00,0.00,0.00
"CA001013519","1989-06-12",,,0.00,0.00,0.00
"CA001013519","1989-06-13",,,106.00,0.00,0.00
"CA001013519","1989-06-14",,,0.00,0.00,0.00
"CA001013519","1989-06-15",,,0.00,0.00,0.00
"CA001013519","1989-06-16",,,,0.00,0.00
"CA001013519","1989-06-17",,,,0.00,0.00
"CA001013519","1989-06-18",,,,0.00,0.00
"CA001013519","1989-06-19",,,,0.00,0.00
"CA001013519","1989-06-20",,,0.00,0.00,0.00
"CA001013519","1989-06-21",,,0.00,0.00,0.00
"CA001013519","1989-06-22",,,0.00,0.00,0.00
"CA001013519","1989-06-23",,,0.00,0.00,0.00
"CA001013519","1989-06-24",,,0.00,0.00,0.00
"CA001013519","1989-06-25",,,0.00,0.00,0.00
"CA001013519","1989-06-26",,,0.00,0.00,0.00
"CA001013519","1989-06-27",,,102.00,0.00,0.00
"CA001013519","1989-06-28",,,64.00,0.00,0.00
"CA001013519","1989-06-29",,,87.00,0.00,0.00
"CA001013519","1989-06-30",,,75.00,0.00,0.00
"CA001013519","1989-07-01",,,50.00,0.00,0.00
"CA001013519","1989-07-02",,,40.00,0.00,0.00
"CA001013519","1989-07-03",,,2.00,0.00,0.00
"CA001013519","1989-07-04",,,4.00,0.00,0.00
"CA001013519","1989-07-05",,,0.00,0.00,0.00
"CA001013519","1989-07-06",,,0.00,0.00,0.00
"CA001013519","1989-07-07",,,0.00,0.00,0.00
"CA001013519","1989-07-08",,,0.00,0.00,0.00
"CA001013519","1989-07-09",,,0.00,0.00,0.00
"CA001013519","1989-07-10",,,0.00,0.00,0.00
"CA001013519","1989-07-11",,,0.00,0.00,0.00
"CA001013519","1989-07-12",,,0.00,0.00,0.00
"CA001013519","1989-07-13",,,0.00,0.00,0.00
"CA001013519","1989-07-14",,,0.00,0.00,0.00
"CA001013519","1989-07-15",,,102.00,0.00,0.00
"CA001013519","1989-07-16",,,40.00,0.00,0.00
"CA001013519","1989-07-17",,,10.00,0.00,0.00
"CA001013519","1989-07-18",,,0.00,0.00,0.00
"CA001013519","1989-07-19",,,0.00,0.00,0.00
"CA001013519","1989-07-20",,,0.00,0.00,0.00
"CA001013519","1989-07-21",,,0.00,0.00,0.00
"CA001013519","1989-07-22",,,0.00,0.00,0.00
"CA001013519","1989-07-23",,,0.00,0.00,0.00
"CA001013519","1989-07-24",,,0.00,0.00,0.00
"CA001013519","1989-07-25",,,0.00,0.00,0.00
"CA001013519","1989-07-26",,,0.00,0.00,0.00
"CA001013519","1989-07-27",,,0.00,0.00,0.00
"CA001013519","1989-07-28",,,20.00,0.00,0.00
"CA001013519","1989-07-29",,,0.00,0.00,0.00
"CA001013519","1989-07-30",,,0.00,0.00,0.00
"CA001013519","1989-07-31",,,110.00,0.00,0.00
"CA001013519","1989-08-01",,,0.00,0.00,0.00
"CA001013519","1989-08-02",,,10.00,0.00,0.00
"CA001013519","1989-08-03",,,0.00,0.00,0.00
"CA001013519","1989-08-04",,,0.00,0.00,0.00
"CA001013519","1989-08-05",,,0.00,0.00,0.00
"CA001013519","1989-08-06",,,0.00,0.00,0.00
"CA001013519","1989-08-07",,,0.00,0.00,0.00
"CA001013519","1989-08-08",,,0.00,0.00,0.00
"CA001013519","1989-08-09",,,0.00,0.00,0.00
"CA001013519","1989-08-10",,,0.00,0.00,0.00
"CA001013519","1989-08-11",,,0.00,0.00,0.00
"CA001013519","1989-08-12",,,0.00,0.00,0.00
"CA001013519","1989-08-13",,,104.00,0.00,0.00
"CA001013519","1989-08-14",,,46.00,0.00,0.00
"CA001013519","1989-08-15",,,10.00,0.00,0.00
"CA001013519","1989-08-16",,,0.00,0.00,0.00
"CA001013519","1989-08-17",,,0.00,0.00,0.00
"CA001013519","1989-08-18",,,0.00,0.00,0.00
"CA001013519","1989-08-19",,,0.00,0.00,0.00
"CA001013519","1989-08-20",,,76.00,0.00,0.00
"CA001013519","1989-08-21",,,178.00,0.00,0.00
"CA001013519","1989-08-22",,,34.00,0.00,0.00
"CA001013519","1989-08-23",,,0.00,0.00,0.00
"CA001013519","1989-08-24",,,0.00,0.00,0.00
"CA001013519","1989-08-25",,,0.00,0.00,0.00
"CA001013519","1989-08-26",,,0.00,0.00,0.00
"CA001013519","1989-08-27",,,0.00,0.00,0.00
"CA001013519","1989-08-28",,,0.00,0.00,0.00
"CA001013519","1989-08-29",,,0.00,0.00,0.00
"CA001013519","1989-08-30",,,0.00,0.00,0.00
"CA001013519","1989-08-31",,,0.00,0.00,0.00
"CA001013519","1989-09-01",,,8.00,0.00,0.00
"CA001013519","1989-09-02",,,0.00,0.00,0.00
"CA001013519","1989-09-03",,,4.00,0.00,0.00
"CA001013519","1989-09-04",,,0.00,0.00,0.00
"CA001013519","1989-09-05",,,0.00,0.00,0.00
"CA001013519","1989-09-06",,,0.00,0.00,0.00
"CA001013519","1989-09-07",,,0.00,0.00,0.00
"CA001013519","1989-09-08",,,0.00,0.00,0.00
"CA001013519","1989-09-09",,,0.00,0.00,0.00
"CA001013519","1989-09-10",,,0.00,0.00,0.00
"CA001013519","1989-09-11",,,0.00,0.00,0.00
"CA001013519","1989-09-12",,,0.00,0.00,0.00
"CA001013519","1989-09-13",,,0.00,0.00,0.00
"CA001013519","1989-09-14",,,0.00,0.00,0.00
"CA001013519","1989-09-15",,,0.00,0.00,0.00
"CA001013519","1989-09-16",,,10.00,0.00,0.00
"CA001013519","1989-09-17",,,0.00,0.00,0.00
"CA001013519","1989-09-18",,,0.00,0.00,0.00
"CA001013519","1989-09-19",,,0.00,0.00,0.00
"CA001013519","1989-09-20",,,0.00,0.00,0.00
"CA001013519","1989-09-21",,,0.00,0.00,0.00
"CA001013519","1989-09-22",,,0.00,0.00,0.00
"CA001013519","1989-09-23",,,0.00,0.00,0.00
"CA001013519","1989-09-24",,,0.00,0.00,0.00
"CA001013519","1989-09-25",,,26.00,0.00,0.00
"CA001013519","1989-09-26",,,0.00,0.00,0.00
"CA001013519","1989-09-27",,,0.00,0.00,0.00
"CA001013519","1989-09-28",,,0.00,0.00,0.00
"CA001013519","1989-09-29",,,0.00,0.00,0.00
"CA001013519","1989-09-30",,,0.00,0.00,0.00
"CA001013519","1989-10-01",,,0.00,0.00,0.00
"CA001013519","1989-10-02",,,0.00,0.00,0.00
"CA001013519","1989-10-03",,,0.00,0.00,0.00
"CA001013519","1989-10-04",,,80.00,0.00,0.00
"CA001013519","1989-10-05",,,6.00,0.00,0.00
"CA001013519","1989-10-06",,,0.00,0.00,0.00
"CA001013519","1989-10-07",,,20.00,0.00,0.00
"CA001013519","1989-10-08",,,0.00,0.00,0.00
"CA001013519","1989-10-09",,,14.00,0.00,0.00
"CA001013519","1989-10-10",,,112.00,0.00,0.00
"CA001013519","1989-10-11",,,252.00,0.00,0.00
"CA001013519","1989-10-12",,,70.00,0.00,0.00
"CA001013519","1989-10-13",,,0.00,0.00,0.00
"CA001013519","1989-10-14",,,0.00,0.00,0.00
"CA001013519","1989-10-15",,,0.00,0.00,0.00
"CA001013519","1989-10-16",,,0.00,0.00,0.00
"CA001013519","1989-10-17",,,60.00,0.00,0.00
"CA001013519","1989-10-18",,,58.00,0.00,0.00
"CA001013519","1989-10-19",,,46.00,0.00,0.00
"CA001013519","1989-10-20",,,480.00,0.00,0.00
"CA001013519","1989-10-21",,,400.00,0.00,0.00
"CA001013519","1989-10-22",,,380.00,0.00,0.00
"CA001013519","1989-10-23",,,175.00,0.00,0.00
"CA001013519","1989-10-24",,,15.00,0.00,0.00
"CA001013519","1989-10-25",,,378.00,0.00,0.00
"CA001013519","1989-10-26",,,29.00,0.00,0.00
"CA001013519","1989-10-27",,,0.00,0.00,0.00
"CA001013519","1989-10-28",,,0.00,0.00,0.00
"CA001013519","1989-10-29",,,20.00,0.00,0.00
"CA001013519","1989-10-30",,,12.00,0.00,0.00
"CA001013519","1989-10-31",,,0.00,0.00,0.00
"CA001013519","1989-11-01",,,0.00,0.00,0.00
"CA001013519","1989-11-02",,,78.00,0.00,0.00
"CA001013519","1989-11-03",,,185.00,0.00,0.00
"CA001013519","1989-11-04",,,0.00,0.00,0.00
"CA001013519","1989-11-05",,,84.00,0.00,0.00
"CA001013519","1989-11-06",,,52.00,0.00,0.00
"CA001013519","1989-11-07",,,290.00,0.00,0.00
"CA001013519","1989-11-08",,,337.00,0.00,0.00
"CA001013519","1989-11-09",,,578.00,0.00,0.00
"CA001013519","1989-11-10",,,40.00,0.00,0.00
"CA001013519","1989-11-11",,,38.00,0.00,0.00
"CA001013519","1989-11-12",,,82.00,10.00,0.00
"CA001013519","1989-11-13",,,42.00,0.00,10.00
"CA001013519","1989-11-14",,,6.00,0.00,
"CA001013519","1989-11-15",,,49.00,0.00,
"CA001013519","1989-11-16",,,71.00,0.00,
"CA001013519","1989-11-17",,,9.00,0.00,0.00
"CA001013519","1989-11-18",,,42.00,0.00,0.00
"CA001013519","1989-11-19",,,189.00,0.00,0.00
"CA001013519","1989-11-20",,,105.00,0.00,0.00
"CA001013519","1989-11-21",,,0.00,0.00,0.00
"CA001013519","1989-11-22",,,148.00,0.00,0.00
"CA001013519","1989-11-23",,,139.00,0.00,0.00
"CA001013519","1989-11-24",,,123.00,0.00,0.00
"CA001013519","1989-11-25",,,70.00,0.00,0.00
"CA001013519","1989-11-26",,,33.00,0.00,0.00
"CA001013519","1989-11-27",,,43.00,0.00,0.00
"CA001013519","1989-11-28",,,0.00,0.00,0.00
"CA001013519","1989-11-29",,,0.00,0.00,0.00
"CA001013519","1989-11-30",,,0.00,0.00,0.00
"CA001013519","1989-12-01",,,244.00,0.00,0.00
"CA001013519","1989-12-02",,,359.00,0.00,0.00
"CA001013519","1989-12-03",,,777.00,0.00,0.00
"CA001013519","1989-12-04",,,186.00,0.00,0.00
"CA001013519","1989-12-05",,,157.00,0.00,0.00
"CA001013519","1989-12-06",,,41.00,0.00,0.00
"CA001013519","1989-12-07",,,274.00,0.00,0.00
"CA001013519","1989-12-08",,,112.00,0.00,0.00
"CA001013519","1989-12-09",,,0.00,0.00,0.00
"CA001013519","1989-12-10",,,0.00,0.00,0.00
"CA001013519","1989-12-11",,,0.00,0.00,0.00
"CA001013519","1989-12-12",,,0.00,0.00,0.00
"CA001013519","1989-12-13",,,0.00,0.00,0.00
"CA001013519","1989-12-14",,,0.00,0.00,0.00
"CA001013519","1989-12-15",,,0.00,0.00,0.00
"CA001013519","1989-12-16",,,0.00,0.00,0.00
"CA001013519","1989-12-17",,,0.00,0.00,0.00
"CA001013519","1989-12-18",,,0.00,0.00,0.00
"CA001013519","1989-12-19",,,18.00,0.00,0.00
"CA001013519","1989-12-20",,,46.00,0.00,0.00
"CA001013519","1989-12-21",,,19.00,0.00,0.00
"CA001013519","1989-12-22",,,54.00,0.00,0.00
"CA001013519","1989-12-23",,,15.00,0.00,0.00
"CA001013519","1989-12-24",,,0.00,0.00,0.00
"CA001013519","1989-12-25",,,0.00,0.00,0.00
"CA001013519","1989-12-26",,,15.00,0.00,0.00
"CA001013519","1989-12-27",,,34.00,0.00,0.00
"CA001013519","1989-12-28",,,11.00,0.00,0.00
"CA001013519","1989-12-29",,,16.00,0.00,0.00
"CA001013519","1989-12-30",,,56.00,0.00,0.00
"CA001013519","1989-12-31",,,160.00,0.00,0.00
"CA001013519","1990-01-01",,,7.00,0.00,0.00
"CA001013519","1990-01-02",,,88.00,0.00,0.00
"CA001013519","1990-01-03",,,197.00,0.00,0.00
"CA001013519","1990-01-04",,,127.00,0.00,0.00
"CA001013519","1990-01-05",,,466.00,0.00,0.00
"CA001013519","1990-01-06",,,494.00,0.00,0.00
"CA001013519","1990-01-07",,,214.00,0.00,0.00
"CA001013519","1990-01-08",,,243.00,0.00,0.00
"CA001013519","1990-01-09",,,86.00,0.00,0.00
"CA001013519","1990-01-10",,,0.00,0.00,0.00
"CA001013519","1990-01-11",,,,,0.00
"CA001013519","1990-01-12",,,83.00,0.00,0.00
"CA001013519","1990-01-13",,,86.00,0.00,0.00
"CA001013519","1990-01-14",,,0.00,0.00,0.00
"CA001013519","1990-01-15",,,24.00,0.00,0.00
"CA001013519","1990-01-16",,,0.00,0.00,0.00
"CA001013519","1990-01-17",,,0.00,0.00,0.00
"CA001013519","1990-01-18",,,0.00,0.00,0.00
"CA001013519","1990-01-19",,,0.00,0.00,0.00
"CA001013519","1990-01-20",,,12.00,0.00,0.00
"CA001013519","1990-01-21",,,222.00,0.00,0.00
"CA001013519","1990-01-22",,,,,0.00
"CA001013519","1990-01-23",,,57.00,0.00,0.00
"CA001013519","1990-01-24",,,,,0.00
"CA001013519","1990-01-25",,,59.00,0.00,0.00
"CA001013519","1990-01-26",,,139.00,104.00,0.00
"CA001013519","1990-01-27",,,153.00,16.00,100.00
"CA001013519","1990-01-28",,,164.00,0.00,90.00
"CA001013519","1990-01-29",,,118.00,64.00,60.00
"CA001013519","1990-01-30",,,18.00,0.00,120.00
"CA001013519","1990-01-31",,,138.00,110.00,100.00
"CA001013519","1990-02-01",,,96.00,0.00,210.00
"CA001013519","1990-02-02",,,1014.00,0.00,200.00
"CA001013519","1990-02-03",,,6.00,0.00,150.00
"CA001013519","1990-02-04",,,288.00,50.00,130.00
"CA001013519","1990-02-05",,,195.00,124.00,180.00
"CA001013519","1990-02-06",,,,,300.00
"CA001013519","1990-02-07",,,242.00,242.00,450.00
"CA001013519","1990-02-08",,,84.00,0.00,560.00
"CA001013519","1990-02-09",,,161.00,0.00,420.00
"CA001013519","1990-02-10",,,308.00,0.00,280.00
"CA001013519","1990-02-11",,,64.00,64.00,210.00
"CA001013519","1990-02-12",,,0.00,0.00,270.00
"CA001013519","1990-02-13",,,0.00,0.00,240.00
"CA001013519","1990-02-14",,,236.00,236.00,240.00
"CA001013519","1990-02-15",,,106.00,106.00,460.00
"CA001013519","1990-02-16",,,0.00,0.00,480.00
"CA001013519","1990-02-17",,,0.00,0.00,440.00
"CA001013519","1990-02-18",,,0.00,0.00,420.00
"CA001013519","1990-02-19",,,124.00,124.00,400.00
"CA001013519","1990-02-20",,,20.00,0.00,520.00
"CA001013519","1990-02-21",,,5.00,0.00,490.00
"CA001013519","1990-02-22",,,0.00,0.00,420.00
"CA001013519","1990-02-23",,,47.00,0.00,380.00
"CA001013519","1990-02-24",,,0.00,0.00,330.00
"CA001013519","1990-02-25",,,0.00,0.00,290.00
"CA001013519","1990-02-26",,,0.00,0.00,240.00
"CA001013519","1990-02-27",,,0.00,0.00,200.00
"CA001013519","1990-02-28",,,0.00,0.00,180.00
"CA001013519","1990-03-01",,,0.00,0.00,150.00
"CA001013519","1990-03-02",,,0.00,0.00,130.00
"CA001013519","1990-03-03",,,70.00,0.00,120.00
"CA001013519","1990-03-04",,,0.00,0.00,100.00
"CA001013519","1990-03-05",,,124.00,0.00,80.00
"CA001013519","1990-03-06",,,207.00,10.00,70.00
"CA001013519","1990-03-07",,,242.00,204.00,70.00
"CA001013519","1990-03-08",,,,,270.00
"CA001013519","1990-03-09",,,424.00,0.00,180.00
"CA001013519","1990-03-10",,,14.00,0.00,140.00
"CA001013519","1990-03-11",,,0.00,0.00,120.00
"CA001013519","1990-03-12",,,0.00,0.00,80.00
"CA001013519","1990-03-13",,,212.00,38.00,60.00
"CA001013519","1990-03-14",,,11.00,0.00,90.00
"CA001013519","1990-03-15",,,0.00,0.00,70.00
"CA001013519","1990-03-16",,,64.00,0.00,40.00
"CA001013519","1990-03-17",,,85.00,0.00,30.00
"CA001013519","1990-03-18",,,0.00,0.00,0.00
"CA001013519","1990-03-19",,,79.00,0.00,0.00
"CA001013519","1990-03-20",,,17.00,0.00,0.00
"CA001013519","1990-03-21",,,24.00,0.00,0.00
"CA001013519","1990-03-22",,,33.00,0.00,0.00
"CA001013519","1990-03-23",,,0.00,0.00,0.00
"CA001013519","1990-03-24",,,0.00,0.00,0.00
"CA001013519","1990-03-25",,,0.00,0.00,0.00
"CA001013519","1990-03-26",,,0.00,0.00,0.00
"CA001013519","1990-03-27",,,0.00,0.00,0.00
"CA001013519","1990-03-28",,,0.00,0.00,0.00
"CA001013519","1990-03-29",,,0.00,0.00,0.00
"CA001013519","1990-03-30",,,0.00,0.00,0.00
"CA001013519","1990-03-31",,,0.00,0.00,0.00
"CA001013519","1990-04-01",,,0.00,0.00,0.00
"CA001013519","1990-04-02",,,0.00,0.00,0.00
"CA001013519","1990-04-03",,,0.00,0.00,0.00
"CA001013519","1990-04-04",,,0.00,0.00,0.00
"CA001013519","1990-04-05",,,0.00,0.00,0.00
"CA001013519","1990-04-06",,,0.00,0.00,0.00
"CA001013519","1990-04-07",,,0.00,0.00,0.00
"CA001013519","1990-04-08",,,0.00,0.00,0.00
"CA001013519","1990-04-09",,,0.00,0.00,0.00
"CA001013519","1990-04-10",,,0.00,0.00,0.00
"CA001013519","1990-04-11",,,19.00,0.00,0.00
"CA001013519","1990-04-12",,,26.00,0.00,0.00
"CA001013519","1990-04-13",,,82.00,0.00,0.00
"CA001013519","1990-04-14",,,0.00,0.00,0.00
"CA001013519","1990-04-15",,,0.00,0.00,0.00
"CA001013519","1990-04-16",,,60.00,0.00,0.00
"CA001013519","1990-04-17",,,0.00,0.00,0.00
"CA001013519","1990-04-18",,,82.00,0.00,0.00
"CA001013519","1990-04-19",,,76.00,0.00,0.00
"CA001013519","1990-04-20",,,6.00,0.00,0.00
"CA001013519","1990-04-21",,,25.00,0.00,0.00
"CA001013519","1990-04-22",,,151.00,0.00,0.00
"CA001013519","1990-04-23",,,111.00,0.00,0.00
"CA001013519","1990-04-24",,,156.00,0.00,0.00
"CA001013519","1990-04-25",,,33.00,0.00,0.00
"CA001013519","1990-04-26",,,20.00,0.00,0.00
"CA001013519","1990-04-27",,,75.00,0.00,0.00
"CA001013519","1990-04-28",,,37.00,0.00,0.00
"CA001013519","1990-04-29",,,0.00,0.00,0.00
"CA001013519","1990-04-30",,,0.00,0.00,0.00
"CA001013519","1990-05-01",,,11.00,0.00,0.00
"CA001013519","1990-05-02",,,0.00,0.00,0.00
"CA001013519","1990-05-03",,,0.00,0.00,0.00
"CA001013519","1990-05-04",,,0.00,0.00,0.00
"CA001013519","1990-05-05",,,17.00,0.00,0.00
"CA001013519","1990-05-06",,,0.00,0.00,0.00
"CA001013519","1990-05-07",,,0.00,0.00,0.00
"CA001013519","1990-05-08",,,0.00,0.00,0.00
"CA001013519","1990-05-09",,,0.00,0.00,0.00
"CA001013519","1990-05-10",,,0.00,0.00,0.00
"CA001013519","1990-05-11",,,0.00,0.00,0.00
"CA001013519","1990-05-12",,,14.00,0.00,0.00
"CA001013519","1990-05-13",,,17.00,0.00,0.00
"CA001013519","1990-05-14",,,0.00,0.00,0.00
"CA001013519","1990-05-15",,,0.00,0.00,0.00
"CA001013519","1990-05-16",,,0.00,0.00,0.00
"CA001013519","1990-05-17",,,0.00,0.00,0.00
"CA001013519","1990-05-18",,,0.00,0.00,0.00
"CA001013519","1990-05-19",,,18.00,0.00,0.00
"CA001013519","1990-05-20",,,28.00,0.00,0.00
"CA001013519","1990-05-21",,,129.00,0.00,0.00
"CA001013519","1990-05-22",,,6.00,0.00,0.00
"CA001013519","1990-05-23",,,59.00,0.00,0.00
"CA001013519","1990-05-24",,,0.00,0.00,0.00
"CA001013519","1990-05-25",,,0.00,0.00,0.00
"CA001013519","1990-05-26",,,53.00,0.00,0.00
"CA001013519","1990-05-27",,,95.00,0.00,0.00
"CA001013519","1990-05-28",,,0.00,0.00,0.00
"CA001013519","1990-05-29",,,0.00,0.00,0.00
"CA001013519","1990-05-30",,,138.00,0.00,0.00
"CA001013519","1990-05-31",,,204.00,0.00,0.00
"CA001013519","1990-06-01",,,8.00,0.00,0.00
"CA001013519","1990-06-02",,,334.00,0.00,0.00
"CA001013519","1990-06-03",,,165.00,0.00,0.00
"CA001013519","1990-06-04",,,43.00,0.00,0.00
"CA001013519","1990-06-05",,,26.00,0.00,0.00
"CA001013519","1990-06-06",,,86.00,0.00,0.00
"CA001013519","1990-06-07",,,63.00,0.00,0.00
"CA001013519","1990-06-08",,,40.00,0.00,0.00
"CA001013519","1990-06-09",,,119.00,0.00,0.00
"CA001013519","1990-06-10",,,36.00,0.00,0.00
"CA001013519","1990-06-11",,,0.00,0.00,0.00
"CA001013519","1990-06-12",,,42.00,0.00,0.00
"CA001013519","1990-06-13",,,0.00,0.00,0.00
"CA001013519","1990-06-14",,,0.00,0.00,0.00
"CA001013519","1990-06-15",,,0.00,0.00,0.00
"CA001013519","1990-06-16",,,0.00,0.00,0.00
"CA001013519","1990-06-17",,,0.00,0.00,0.00
"CA001013519","1990-06-18",,,0.00,0.00,0.00
"CA001013519","1990-06-19",,,0.00,0.00,0.00
"CA001013519","1990-06-20",,,0.00,0.00,0.00
"CA001013519","1990-06-21",,,0.00,0.00,0.00
"CA001013519","1990-06-22",,,0.00,0.00,0.00
"CA001013519","1990-06-23",,,0.00,0.00,0.00
"CA001013519","1990-06-24",,,0.00,0.00,0.00
"CA001013519","1990-06-25",,,0.00,0.00,0.00
"CA001013519","1990-06-26",,,0.00,0.00,0.00
"CA001013519","1990-06-27",,,77.00,0.00,0.00
"CA001013519","1990-06-28",,,85.00,0.00,0.00
"CA001013519","1990-06-29",,,115.00,0.00,0.00
"CA001013519","1990-06-30",,,4.00,0.00,0.00
"CA001013519","1990-07-01",,,8.00,0.00,0.00
"CA001013519","1990-07-02",,,0.00,0.00,0.00
"CA001013519","1990-07-03",,,0.00,0.00,0.00
"CA001013519","1990-07-04",,,0.00,0.00,0.00
"CA001013519","1990-07-05",,,57.00,0.00,0.00
"CA001013519","1990-07-06",,,0.00,0.00,0.00
"CA001013519","1990-07-07",,,0.00,0.00,0.00
"CA001013519","1990-07-08",,,0.00,0.00,0.00
"CA001013519","1990-07-09",,,0.00,0.00,0.00
"CA001013519","1990-07-10",,,0.00,0.00,0.00
"CA001013519","1990-07-11",,,0.00,0.00,0.00
"CA001013519","1990-07-12",,,0.00,0.00,0.00
"CA001013519","1990-07-13",,,0.00,0.00,0.00
"CA001013519","1990-07-14",,,0.00,0.00,0.00
"CA001013519","1990-07-15",,,0.00,0.00,0.00
"CA001013519","1990-07-16",,,0.00,0.00,0.00
"CA001013519","1990-07-17",,,0.00,0.00,0.00
"CA001013519","1990-07-18",,,0.00,0.00,0.00
"CA001013519","1990-07-19",,,0.00,0.00,0.00
"CA001013519","1990-07-20",,,0.00,0.00,0.00
"CA001013519","1990-07-21",,,0.00,0.00,0.00
"CA001013519","1990-07-22",,,0.00,0.00,0.00
"CA001013519","1990-07-23",,,0.00,0.00,0.00
"CA001013519","1990-07-24",,,0.00,0.00,0.00
"CA001013519","1990-07-25",,,0.00,0.00,0.00
"CA001013519","1990-07-26",,,0.00,0.00,0.00
"CA001013519","1990-07-27",,,0.00,0.00,0.00
"CA001013519","1990-07-28",,,0.00,0.00,0.00
"CA001013519","1990-07-29",,,0.00,0.00,0.00
"CA001013519","1990-07-30",,,0.00,0.00,0.00
"CA001013519","1990-07-31",,,0.00,0.00,0.00
"CA001013519","1990-08-01",,,0.00,0.00,0.00
"CA001013519","1990-08-02",,,0.00,0.00,0.00
"CA001013519","1990-08-03",,,0.00,0.00,0.00
"CA001013519","1990-08-04",,,0.00,0.00,0.00
"CA001013519","1990-08-05",,,0.00,0.00,0.00
"CA001013519","1990-08-06",,,0.00,0.00,0.00
"CA001013519","1990-08-07",,,0.00,0.00,0.00
"CA001013519","1990-08-08",,,0.00,0.00,0.00
"CA001013519","1990-08-09",,,0.00,0.00,0.00
"CA001013519","1990-08-10",,,0.00,0.00,0.00
"CA001013519","1990-08-11",,,0.00,0.00,0.00
"CA001013519","1990-08-12",,,0.00,0.00,0.00
"CA001013519","1990-08-13",,,0.00,0.00,0.00
"CA001013519","1990-08-14",,,0.00,0.00,0.00
"CA001013519","1990-08-15",,,41.00,0.00,0.00
"CA001013519","1990-08-16",,,18.00,0.00,0.00
"CA001013519","1990-08-17",,,27.00,0.00,0.00
"CA001013519","1990-08-18",,,0.00,0.00,0.00
"CA001013519","1990-08-19",,,0.00,0.00,0.00
"CA001013519","1990-08-20",,,0.00,0.00,0.00
"CA001013519","1990-08-21",,,0.00,0.00,0.00
"CA001013519","1990-08-22",,,0.00,0.00,0.00
"CA001013519","1990-08-23",,,33.00,0.00,0.00
"CA001013519","1990-08-24",,,0.00,0.00,0.00
"CA001013519","1990-08-25",,,4.00,0.00,0.00
"CA001013519","1990-08-26",,,0.00,0.00,0.00
"CA001013519","1990-08-27",,,0.00,0.00,0.00
"CA001013519","1990-08-28",,,0.00,0.00,0.00
"CA001013519","1990-08-29",,,81.00,0.00,0.00
"CA001013519","1990-08-30",,,232.00,0.00,0.00
"CA001013519","1990-08-31",,,40.00,0.00,0.00
"CA001013519","1990-09-01",,,0.00,0.00,0.00
"CA001013519","1990-09-02",,,0.00,0.00,0.00
"CA001013519","1990-09-03",,,0.00,0.00,0.00
"CA001013519","1990-09-04",,,0.00,0.00,0.00
"CA001013519","1990-09-05",,,0.00,0.00,0.00
"CA001013519","1990-09-06",,,0.00,0.00,0.00
"CA001013519","1990-09-07",,,0.00,0.00,0.00
"CA001013519","1990-09-08",,,0.00,0.00,0.00
"CA001013519","1990-09-09",,,0.00,0.00,0.00
"CA001013519","1990-09-10",,,0.00,0.00,0.00
"CA001013519","1990-09-11",,,0.00,0.00,0.00
"CA001013519","1990-09-12",,,0.00,0.00,0.00
"CA001013519","1990-09-13",,,0.00,0.00,0.00
"CA001013519","1990-09-14",,,0.00,0.00,0.00
"CA001013519","1990-09-15",,,88.00,0.00,0.00
"CA001013519","1990-09-16",,,20.00,0.00,0.00
"CA001013519","1990-09-17",,,0.00,0.00,0.00
"CA001013519","1990-09-18",,,0.00,0.00,0.00
"CA001013519","1990-09-19",,,0.00,0.00,0.00
"CA001013519","1990-09-20",,,0.00,0.00,0.00
"CA001013519","1990-09-21",,,0.00,0.00,0.00
"CA001013519","1990-09-22",,,0.00,0.00,0.00
"CA001013519","1990-09-23",,,0.00,0.00,0.00
"CA001013519","1990-09-24",,,0.00,0.00,0.00
"CA001013519","1990-09-25",,,0.00,0.00,0.00
"CA001013519","1990-09-26",,,0.00,0.00,0.00
"CA001013519","1990-09-27",,,0.00,0.00,0.00
"CA001013519","1990-09-28",,,0.00,0.00,0.00
"CA001013519","1990-09-29",,,0.00,0.00,0.00
"CA001013519","1990-09-30",,,,0.00,0.00
"CA001013519","1990-10-01",,,42.00,0.00,0.00
"CA001013519","1990-10-02",,,138.00,0.00,0.00
"CA001013519","1990-10-03",,,668.00,0.00,0.00
"CA001013519","1990-10-04",,,97.00,0.00,0.00
"CA001013519","1990-10-05",,,5.00,0.00,0.00
"CA001013519","1990-10-06",,,0.00,0.00,0.00
"CA001013519","1990-10-07",,,0.00,0.00,0.00
"CA001013519","1990-10-08",,,6.00,0.00,0.00
"CA001013519","1990-10-09",,,151.00,0.00,0.00
"CA001013519","1990-10-10",,,0.00,0.00,0.00
"CA001013519","1990-10-11",,,234.00,0.00,0.00
"CA001013519","1990-10-12",,,8.00,0.00,0.00
"CA001013519","1990-10-13",,,23.00,0.00,0.00
"CA001013519","1990-10-14",,,130.00,0.00,0.00
"CA001013519","1990-10-15",,,0.00,0.00,0.00
"CA001013519","1990-10-16",,,0.00,0.00,0.00
"CA001013519","1990-10-17",,,300.00,0.00,0.00
"CA001013519","1990-10-18",,,14.00,0.00,0.00
"CA001013519","1990-10-19",,,0.00,0.00,0.00
"CA001013519","1990-10-20",,,312.00,0.00,0.00
"CA001013519","1990-10-21",,,0.00,0.00,0.00
"CA001013519","1990-10-22",,,20.00,0.00,0.00
"CA001013519","1990-10-23",,,28.00,0.00,0.00
"CA001013519","1990-10-24",,,540.00,0.00,0.00
"CA001013519","1990-10-25",,,317.00,0.00,0.00
"CA001013519","1990-10-26",,,40.00,0.00,0.00
"CA001013519","1990-10-27",,,250.00,0.00,0.00
"CA001013519","1990-10-28",,,166.00,0.00,0.00
"CA001013519","1990-10-29",,,386.00,0.00,0.00
"CA001013519","1990-10-30",,,76.00,0.00,0.00
"CA001013519","1990-10-31",,,22.00,0.00,0.00
"CA001013519","1990-11-01",,,4.00,0.00,0.00
"CA001013519","1990-11-02",,,212.00,0.00,0.00
"CA001013519","1990-11-03",,,41.00,0.00,0.00
"CA001013519","1990-11-04",,,0.00,0.00,0.00
"CA001013519","1990-11-05",,,0.00,0.00,0.00
"CA001013519","1990-11-06",,,190.00,0.00,0.00